USA 149 (DSP 20)

Last updated on Fri Jul 11 2025 00:02:42 GMT+0000 (Coordinated Universal Time)

1 26356U 00024A 25191.17209067 .00000101 00000+0 00000+0 0 9998 2 26356 12.9099 14.2236 0001609 239.6271 291.1631 1.00267840 28177
UTC large
Height (km)
Speed (km/s)
/
Latitude / Longitude
Inclination (degrees)
Orbital Period (minutes)
Azimuth
Elevation
Range (km)
Doppler Factor

Next 0 passes for location: London (51.5072 / 0.1276)

Sorry there are no passes over London.